RH
84 93 91 88 93 96 96 89 94 99 98 75 91 97 99 96 77 73 86 54 43 71 78 62 90 81 77 61 60 58 79 82 55 55 41 36 36 33 32 31 26 22 23 28 34
82 92 94 93 76 82 87 98 83 75 86 91 85 94 98 99 94 82 35 32 42 84 99 71 90 88 82 63 59 65 83 74 53 46 42 42 40 37 36 37 29 23 36 31 43
92 92 93 92 85 78 80 95 94 76 79 77 84 92 100 100 100 80 52 30 41 81 98 87 80 83 77 66 62 66 76 59 54 46 46 45 46 38 38 39 32 30 40 67 63
90 89 83 76 82 81 86 77 91 85 96 86 81 97 98 99 87 86 70 34 36 74 98 93 90 76 75 75 61 67 60 54 49 49 49 47 42 43 40 36 34 33 34 49 75
98 91 93 78 74 76 78 80 90 95 95 95 95 98 99 100 84 94 91 82 45 88 100 100 94 75 72 68 62 64 57 54 50 48 48 47 47 47 42 36 34 34 33 35 38
88 91 92 93 84 78 83 81 82 76 92 92 97 99 100 98 82 70 74 80 60 85 96 99 91 70 62 66 62 57 53 51 48 47 46 49 49 46 43 38 36 35 34 32 31
80 86 86 78 81 72 81 76 79 85 97 99 99 96 99 95 79 72 55 81 68 82 92 93 80 70 65 65 56 56 57 56 55 50 50 49 59 65 43 38 37 36 36 35 33
80 80 86 59 64 74 70 72 75 74 84 99 100 94 97 84 76 93 88 85 85 88 77 84 71 71 66 60 59 67 63 75 54 56 50 48 60 46 39 40 40 37 32 31 29
84 81 96 94 69 62 69 66 65 73 81 97 96 87 84 82 82 78 93 91 91 88 79 76 74 70 65 74 72 68 88 80 62 51 50 60 68 49 44 44 48 42 37 34 33
96 89 92 95 92 80 71 61 65 67 70 81 88 99 92 83 78 72 95 92 94 89 81 79 75 84 83 72 85 84 76 76 72 49 55 59 61 46 36 40 47 39 38 37 37
99 78 81 81 79 74 75 66 75 72 94 87 94 91 92 78 76 67 89 94 90 98 84 75 93 89 75 75 64 67 72 72 64 52 53 59 56 48 39 38 37 33 30 29 31
93 87 84 72 80 84 79 82 89 91 92 70 95 83 90 90 75 83 93 90 89 98 92 97 94 79 72 67 68 69 77 78 67 51 49 57 58 47 40 40 34 32 30 29 29
99 74 87 85 88 87 79 74 87 90 91 83 96 90 83 67 71 79 83 90 82 88 89 82 85 79 70 74 76 74 77 74 70 57 52 63 55 45 35 34 32 29 29 28 28
88 99 96 92 91 89 82 81 83 90 93 82 94 94 82 64 74 71 90 85 86 94 94 84 76 86 90 87 68 76 57 57 58 63 78 60 75 57 45 47 38 29 26 27 26
86 81 88 84 95 99 93 91 95 90 73 82 89 97 81 68 69 71 85 85 75 87 94 92 89 88 81 79 58 65 54 59 63 72 66 64 76 57 43 35 28 31 28 24 22
86 84 85 85 91 98 89 89 88 83 100 99 95 91 78 71 77 70 60 64 76 72 65 72 57 58 60 60 53 59 60 67 74 74 84 64 70 50 37 34 34 33 28 33 32
86 83 79 87 94 93 83 84 86 93 99 99 92 76 78 79 81 74 73 78 91 98 100 71 65 54 54 65 56 59 66 84 66 84 74 70 76 56 46 44 36 40 33 34 33
71 70 74 76 77 83 86 84 92 93 97 91 77 79 87 77 85 82 74 82 68 79 94 92 92 61 53 60 69 65 60 77 50 74 74 71 80 46 40 34 32 35 34 33 33
72 74 81 86 89 92 96 96 98 99 98 86 72 88 98 83 83 91 86 79 68 61 80 84 85 60 58 57 56 73 84 63 85 84 88 67 56 36 34 39 37 37 36 41 46
63 71 88 94 99 98 94 98 100 97 68 74 87 80 95 94 89 95 88 66 66 58 56 66 93 67 61 56 62 62 64 81 89 63 69 60 67 54 35 35 38 44 43 44 50
63 69 76 87 88 83 99 100 86 79 76 70 90 83 88 83 75 74 82 58 55 62 57 62 74 80 63 71 79 74 86 83 77 86 82 81 52 50 42 36 40 49 43 47 57
65 86 70 78 93 99 99 98 90 84 80 72 63 68 74 74 77 70 80 61 54 56 64 56 80 97 77 64 63 66 74 75 82 76 94 94 76 46 47 43 42 43 47 57 69
67 63 67 74 99 95 85 87 89 83 78 73 59 58 61 69 73 66 67 55 54 54 60 61 79 94 85 71 69 74 74 70 74 82 97 88 65 44 45 46 43 45 56 69 73
73 94 76 73 85 92 84 91 82 70 71 56 61 55 58 61 66 70 66 63 57 52 49 52 74 76 83 72 81 92 82 78 76 96 84 84 71 50 48 45 43 47 71 77 76
83 98 98 98 90 91 87 87 84 85 72 60 56 56 61 72 72 75 67 65 61 58 62 62 88 88 83 77 79 76 76 84 85 77 82 69 74 56 48 45 45 61 81 75 79
95 95 91 92 89 89 80 81 86 79 81 68 69 72 59 67 64 79 70 66 66 62 66 68 96 93 93 75 88 97 87 81 82 76 73 69 73 49 47 48 62 78 78 81 82
96 99 98 84 88 82 80 77 78 71 72 82 73 79 83 82 76 58 53 54 58 71 76 73 92 92 96 77 84 90 87 82 81 77 70 83 60 49 65 62 76 78 83 82 85
Wind_Speed
25 25 24 24 22 19 20 17 17 17 17 26 24 21 9 17 15 17 24 22 23 7 11 25 20 15 11 9 8 8 3 5 6 6 3 1 1 0 2 7 7 3 6 6 10
24 24 25 24 25 24 22 18 15 19 23 20 22 22 15 13 17 26 25 22 19 16 11 25 24 18 9 7 8 5 4 9 6 5 4 2 1 4 4 7 4 5 4 8 13
26 23 24 23 19 20 21 18 11 15 17 24 22 20 18 8 14 27 20 24 19 23 15 18 23 20 10 8 7 5 4 5 6 8 4 2 3 1 1 4 3 3 7 5 20
24 25 23 21 20 20 20 21 19 14 17 15 19 14 20 12 7 1 3 17 23 28 24 20 19 15 6 6 8 3 6 8 5 9 4 3 2 4 6 10 5 7 11 3 15
22 21 21 20 19 18 18 18 16 15 15 17 14 12 14 10 19 4 1 9 28 31 28 22 17 9 7 8 6 4 2 11 14 11 8 6 7 8 13 16 14 16 14 10 6
22 22 21 18 18 17 16 16 15 15 16 14 13 14 10 8 16 23 7 9 32 34 31 26 15 9 9 6 5 7 10 10 6 9 6 5 7 9 3 8 17 22 21 18 16
22 21 19 19 16 14 15 16 15 15 14 14 11 12 13 14 10 13 13 11 30 33 34 26 13 11 7 4 10 5 2 2 7 6 5 1 7 7 20 24 28 27 25 24 23
24 20 21 20 19 16 17 16 15 13 14 9 7 9 7 4 18 9 9 14 27 27 31 28 16 14 4 7 4 6 3 1 3 7 5 8 5 3 9 15 24 27 29 30 31
22 21 22 20 16 16 17 18 15 14 10 7 8 8 6 8 17 10 9 17 22 21 21 23 19 11 4 6 3 2 4 4 4 4 2 7 2 3 11 11 17 25 29 30 30
20 22 20 16 15 15 17 14 11 8 6 3 8 5 9 9 19 15 13 12 20 24 17 19 10 4 2 6 7 5 3 2 4 1 2 4 7 9 18 15 16 21 26 27 28
25 22 17 13 11 9 13 5 2 2 5 6 6 4 1 10 14 12 16 11 11 12 7 14 4 13 14 5 5 5 4 3 3 3 3 6 4 13 17 14 19 25 29 32 35
26 20 18 10 9 8 8 4 2 4 5 11 8 14 8 14 10 11 15 6 5 3 9 4 6 6 9 8 7 7 5 2 4 1 1 6 10 15 14 9 24 27 31 34 36
32 17 16 10 8 6 6 3 3 3 2 4 3 3 7 13 8 9 13 4 8 6 2 6 2 8 11 5 6 2 3 3 4 4 2 7 7 5 4 6 9 15 19 20 23
23 22 13 6 6 4 3 1 3 4 4 2 2 2 6 12 6 8 14 4 4 9 7 5 3 9 8 1 3 3 3 2 2 3 2 4 5 7 6 9 6 14 14 11 13
21 14 5 8 3 3 1 2 5 1 6 3 3 8 13 1 18 2 10 3 6 9 4 3 1 4 7 6 6 3 5 4 3 3 2 3 2 8 4 6 3 8 21 16 11
19 15 12 11 1 2 4 4 4 5 3 1 1 4 6 3 4 6 3 13 11 10 9 4 5 1 3 4 2 8 6 6 4 2 2 2 3 7 1 2 6 8 19 22 22
18 16 15 11 10 9 5 2 4 5 1 3 4 5 6 6 5 4 1 4 4 4 3 5 3 3 4 7 5 6 5 2 4 3 4 1 1 8 6 5 4 7 11 17 22
19 20 21 23 15 9 2 4 6 2 2 4 6 11 5 4 4 2 2 3 5 5 3 4 2 1 2 3 5 2 4 4 4 1 3 1 5 4 4 4 3 4 8 20 28
13 15 17 13 7 7 2 5 2 1 3 9 11 7 4 5 4 3 3 3 2 1 5 4 3 2 4 2 2 3 2 2 6 2 2 3 7 8 4 4 7 11 24 31 31
15 11 16 16 12 7 1 5 1 2 4 6 5 1 3 1 3 3 3 3 4 1 2 3 4 2 2 4 8 3 6 3 3 1 3 4 4 4 3 6 7 10 23 33 34
10 5 18 17 9 7 3 3 3 4 5 4 3 4 4 4 2 3 6 0 1 3 5 3 3 1 2 2 5 2 1 5 4 3 3 2 5 5 4 1 3 8 24 30 28
6 3 18 12 4 2 3 4 5 4 4 3 3 3 3 3 3 2 7 2 7 8 5 2 4 3 2 0 1 2 4 4 4 3 2 2 6 3 5 3 7 18 22 20 25
7 5 13 14 4 4 2 2 2 4 3 1 2 2 2 4 4 2 4 1 11 4 6 5 2 3 3 3 3 2 3 3 4 3 5 4 5 1 4 7 19 17 20 26 25
4 3 6 8 5 2 5 4 4 4 3 3 3 3 4 2 4 4 2 3 11 8 6 5 3 4 5 5 3 3 5 5 5 3 3 5 7 12 12 12 18 19 18 21 24
5 2 2 3 4 4 3 4 4 4 5 4 3 2 5 3 2 3 2 2 3 2 4 4 3 2 3 5 4 4 4 8 8 5 6 3 6 12 14 15 19 16 18 20 22
3 3 4 3 5 4 3 4 5 4 4 3 5 4 3 4 5 7 6 3 4 2 4 1 3 2 3 2 5 5 9 9 10 7 12 15 19 18 23 20 12 13 13 16 19
5 4 3 3 3 2 1 3 5 2 3 5 3 3 4 2 2 6 3 8 6 7 3 4 5 2 4 3 6 5 8 13 5 5 9 8 11 9 8 10 9 13 12 14 17
Wind_Direction
311 313 308 300 287 286 290 291 297 287 289 250 248 272 296 242 253 241 232 227 221 186 188 193 198 196 185 191 180 168 114 184 197 161 217 133 181 34 301 291 313 259 255 245 215
318 315 310 304 303 292 286 277 290 306 274 273 253 258 266 244 247 251 247 237 219 182 191 192 196 194 184 193 189 171 166 192 188 184 186 115 124 341 352 342 317 276 276 251 203
314 313 308 307 308 294 290 285 276 301 316 265 268 261 261 315 239 262 253 238 209 179 181 189 200 190 183 182 191 183 193 181 216 188 200 132 296 175 354 305 261 330 356 207 192
318 317 316 309 305 302 290 292 287 279 295 298 277 270 259 264 219 129 191 211 198 184 188 171 164 170 158 185 188 161 192 182 228 218 242 173 251 300 242 244 268 295 311 343 211
326 317 317 316 310 305 301 291 286 281 288 296 301 279 276 225 228 150 95 222 184 184 194 188 173 158 161 167 143 176 191 215 239 261 271 248 234 235 254 263 263 272 270 270 266
324 324 326 324 318 314 307 300 293 288 286 286 290 267 270 223 240 238 282 200 184 184 190 191 184 160 160 179 160 188 207 245 272 252 257 221 239 232 256 247 249 259 265 264 262
317 317 324 324 321 316 306 305 295 288 285 287 282 249 272 242 236 242 233 218 185 189 189 192 179 179 155 130 188 160 108 240 237 221 231 75 265 222 246 257 265 264 266 267 264
320 318 323 318 315 315 313 308 304 289 282 283 279 240 247 217 222 231 202 202 191 193 196 187 178 186 185 130 68 119 87 188 301 168 225 154 241 191 270 253 263 269 267 264 264
318 318 315 310 309 311 311 308 305 292 269 273 269 220 237 219 205 209 203 184 179 182 180 172 171 186 152 115 113 99 178 189 303 203 196 189 310 274 291 306 269 267 272 272 272
328 323 316 306 310 316 313 321 313 276 261 207 205 187 241 208 192 193 173 182 167 164 146 172 178 123 103 179 187 157 152 247 216 224 116 270 272 279 287 285 267 281 279 281 280
323 319 316 315 314 329 337 356 349 18 183 194 272 207 74 184 178 204 182 167 153 106 128 179 160 193 188 157 140 127 131 180 258 298 314 267 270 281 281 274 274 274 275 276 275
308 303 308 305 314 336 350 33 355 314 305 215 317 222 312 168 157 164 179 155 134 108 121 130 195 170 136 128 121 130 139 227 280 302 288 308 291 268 270 241 254 259 265 272 279
314 287 291 299 299 307 301 329 310 209 251 64 33 221 147 158 128 160 181 107 119 94 169 148 106 123 143 135 152 119 169 184 224 333 53 326 289 313 304 272 302 288 281 283 283
331 306 268 290 310 325 211 274 173 167 87 340 20 149 130 121 57 149 178 129 157 109 14 65 350 149 124 124 112 146 179 138 84 42 262 12 289 307 301 321 318 16 359 282 298
349 347 355 218 225 268 57 113 161 257 81 151 253 142 148 357 135 117 148 129 102 124 165 71 212 130 135 176 180 146 100 97 86 93 17 355 83 270 4 344 326 341 12 19 13
27 41 59 147 205 117 149 127 154 39 82 227 333 168 95 94 54 85 38 74 62 56 83 130 136 160 129 61 82 144 79 56 55 71 17 290 133 282 358 55 318 329 12 40 39
43 49 81 96 127 134 140 104 34 67 302 141 147 119 102 116 80 59 24 64 104 110 56 32 5 14 92 81 37 72 76 350 355 17 219 190 153 254 290 281 256 307 18 30 18
53 76 78 81 89 98 25 35 50 304 259 149 114 74 81 58 84 84 84 82 37 79 122 140 155 100 6 110 163 101 146 153 215 197 276 69 236 251 235 266 305 63 30 7 354
46 44 40 40 34 355 325 50 290 321 271 120 77 71 52 39 101 86 60 107 139 98 117 118 54 43 42 101 99 186 87 150 107 48 41 249 289 309 14 108 51 41 4 351 344
333 332 13 357 343 340 50 94 44 275 95 48 88 78 113 52 71 89 175 181 133 102 146 168 89 13 116 105 38 115 145 81 16 113 273 275 279 244 302 345 357 358 339 342 337
340 339 1 356 5 46 51 24 68 55 53 79 147 107 127 139 105 124 184 228 148 117 65 112 92 64 97 188 165 120 112 58 100 121 164 308 273 210 239 359 340 301 332 331 329
359 26 0 11 52 53 13 337 339 3 15 68 96 97 105 113 99 122 188 226 171 148 125 107 117 132 177 9 215 123 165 143 124 243 88 138 274 267 267 235 298 306 323 324 328
356 338 18 30 40 6 349 336 307 342 357 51 98 77 105 126 119 158 191 152 154 140 155 174 33 58 1 15 36 210 187 126 105 82 200 135 261 184 276 277 307 322 327 327 329
14 17 12 51 47 335 8 341 352 351 329 67 91 90 110 99 28 160 146 350 188 168 136 110 109 147 183 201 141 199 186 182 143 135 192 231 290 293 299 308 319 325 321 335 343
16 71 25 348 344 338 356 343 340 14 348 29 60 136 135 105 81 117 117 82 90 163 105 117 121 108 254 231 199 215 182 185 201 189 183 210 229 277 290 299 305 308 327 340 340
37 7 341 275 300 312 347 350 13 344 7 354 101 40 86 145 181 189 142 154 167 93 130 115 127 119 296 339 211 235 223 206 210 228 255 271 287 280 285 292 290 302 332 335 340
31 22 349 296 321 117 296 310 337 334 61 48 98 90 54 329 262 211 134 142 162 145 136 132 133 108 275 327 302 281 218 200 181 197 209 227 243 299 301 298 313 321 342 340 333